Regional Weather Roundup
Issued by NWS

Home | Current Version | Previous Version | Text Only | Print | Product List | Glossary Off
Versions: 1 2 3 4 5 6 7 8 9 10 11 12 13 14 15 16 17 18 19 20 21 22 23 24 25 26 27 28 29 30 31 32 33 34 35 36 37 38 39 40 41 42 43 44 45 46 47 48 49 50

000
ASUS43 KMPX 290001
RWRMN
WEATHER ROUNDUP FOR MINNESOTA
NATIONAL WEATHER SERVICE TWIN CITIES/CHANHASSEN MN
700 PM CDT SUN AUG 28 2016


NOTE: "FAIR" INDICATES FEW OR NO CLOUDS BELOW 12,000 FEET WITH NO
SIGNIFICANT WEATHER AND/OR OBSTRUCTIONS TO VISIBILITY. N/A MEANS
CURRENT SKY AND/OR WEATHER CONDITIONS ARE NOT AVAILABLE.

MNZ060>063-068>070-290100-
   Twin Cities Metro

CITY           SKY/WX    TMP DP  RH WIND       PRES   REMARKS
TWIN CITIES    PTCLDY    82  67  60 S8        30.10R
6HR MIN TEMP:  81; 6HR MAX TEMP:  85;

ST PAUL        CLEAR     80  68  66 S10       30.10R
CRYSTAL        CLEAR     81  66  60 S10       30.08R
BLAINE         PTCLDY    82  68  61 S9        30.09S
LAKEVILLE      MOCLDY    79  70  73 S5        30.11R
EDEN PRAIRIE   CLEAR     82  68  62 S12       30.08S
6HR MIN TEMP:  82; 6HR MAX TEMP:  85;

LAKEVILLE      MOCLDY    79  70  73 S5        30.11R
SOUTH ST PAUL  CLEAR     82  66  59 SE7       30.10S
LAKE ELMO      FAIR      79  70  73 SE6       30.12R
$$
MNZ001>005-007-008-013>017-022>024-027-028-290100-
   Northwest Minnesota

CITY           SKY/WX    TMP DP  RH WIND       PRES   REMARKS
BEMIDJI        SUNNY     75  67  74 SE12      30.02F
HALLOCK        CLOUDY    79  66  65 E14       29.94S
ROSEAU         CLOUDY    70  64  83 SE12      29.99F THUNDER
WARROAD        CLOUDY    72  66  83 E9        30.00F
THIEF RVR FALL CLOUDY    78  67  68 SE9       29.98S
CROOKSTON      MOSUNNY   82  70  65 S13       29.95S
FOSSTON        SUNNY     81  68  65 SE7       29.99F
DETROIT LAKES  SUNNY     81  70  69 S15       30.00S
MOORHEAD       SUNNY     86  72  62 S17       29.93S HX  92
PARK RAPIDS    MOSUNNY   79  68  69 SE13      30.03S
MAHNOMEN       FAIR      79  69  70 SE8       29.98S
$$
MNZ006-009>011-018-025>026-290100-
   North Central Minnesota

CITY           SKY/WX    TMP DP  RH WIND       PRES   REMARKS
BAUDETTE       LGT RAIN  70  64  81 E12       30.02F
FLAG ISLAND    SUNNY     70  64  83 CALM      30.01F
INTL FALLS     CLEAR     70  62  76 SE8       30.08F
6HR MIN TEMP:  67; 6HR MAX TEMP:  74;

WASKISH          N/A     73  64  73 E9        30.05S
BIG FORK       MOCLDY    73  63  68 SE6       30.07F
LONGVILLE      CLOUDY    73  68  83 SE6       30.06F
GRAND RAPIDS   CLEAR     74  66  76 SE8       30.11S
ORR            CLEAR     70  63  78 CALM      30.09F
COOK           PTCLDY    72  63  73 CALM      30.12F
WALKER         MOCLDY    74  67  79 SE6       30.04F
$$
MNZ012-019>021-037-290100-
   Northeast Minnesota

CITY           SKY/WX    TMP DP  RH WIND       PRES   REMARKS
DULUTH         PTCLDY    68  63  84 SE9       30.15S
6HR MIN TEMP:  67; 6HR MAX TEMP:  74;

ELY            CLEAR     73  57  56 S5        30.14S
HIBBING        PTCLDY    71  63  75 SE7       30.12S
EVELETH        PTCLDY    73  64  72 SE5       30.15S
DULUTH HARBOR  CLEAR     66  64  94 NE9       30.15R
TWO HARBORS    CLEAR     70  64  83 E5        30.14R
SILVER BAY     CLEAR     66  63  88 E3        30.14S
G MARAIS ARPRT CLEAR     63  52  67 CALM      30.21S
$$
MNZ029>031-032-039>041-046>048-054>057-064-290100-
   West Central Minnesota

CITY           SKY/WX    TMP DP  RH WIND       PRES   REMARKS
FERGUS FALLS   SUNNY     82  72  69 S14       29.98S
WHEATON        SUNNY     86  75  70 SE12      29.97R HX  95
MORRIS         SUNNY     84  73  70 SE10G18   29.99R HX  91
ALEXANDRIA     MOSUNNY   81  71  71 SE16      30.04S
ELBOW LAKE     FAIR      82  73  76 SE15G21   29.99S
WADENA         SUNNY     79  70  73 SE13      30.02F
GLENWOOD       SUNNY     81  72  74 SE14      30.05R
APPLETON       SUNNY     84  72  65 SE8       29.99R
BENSON         SUNNY     82  72  69 S12       30.01R
ORTONVILLE     SUNNY     84  72  65 S9G16     29.97S
MADISON        SUNNY     84  72  65 S12G20    29.99S
WILLMAR        FAIR      82  72  69 SE12      30.05S
$$
MNZ033>034-036-042>043-049>051-058-059-290100-
   Central Minnesota

CITY           SKY/WX    TMP DP  RH WIND       PRES   REMARKS
ST CLOUD       CLEAR     80  71  74 S9        30.06S
6HR MIN TEMP:  71; 6HR MAX TEMP:  82;

SAUK CENTRE    FAIR      80  70  71 SE10      30.05S
PAYNESVILLE    SUNNY     81  67  62 S12G20    30.06S
AITKIN         PTCLDY    77  64  65 SE8       30.08F
PINE RIVER     PTCLDY    73  68  83 SE13      30.09F
BRAINERD       CLOUDY    75  69  81 SE7       30.07F
STAPLES        SUNNY     79  70  73 SE8       30.04F
LONG PRAIRIE   FAIR      79  68  69 SE10      30.06R
LITTLE FALLS   CLEAR     79  68  69 SE8       30.06S
LITCHFIELD     CLEAR     82  72  69 SE6       30.07R
BUFFALO        CLEAR     81  68  65 SE6       30.09R
MAPLE LAKE     CLEAR     81  72  74 SE3       30.08S
HUTCHINSON     CLOUDY    81  71  72 SE8       30.08R
$$
MNZ037-044-045-052-053-290100-
   East Central Minnesota

CITY           SKY/WX    TMP DP  RH WIND       PRES   REMARKS
PRINCETON      CLEAR     81  72  74 SE6       30.08S
MORA           PTCLDY    73  66  78 SE5       30.12R
CAMBRIDGE      CLEAR     81  68  65 SE5       30.07S
RUSH CITY      CLEAR     76  69  79 E5        30.10S
MOOSE LAKE     MOCLDY    73  64  73 SE3       30.11S
HINCKLEY       CLOUDY    73  70  88 E6        30.11S
CLOQUET        CLEAR     70  63  78 E6        30.14S
MCGREGOR       CLOUDY    73  68  83 SE5       30.11S
$$
MNZ071>073-080-081-089-090-097-098-290100-
   Southwest Minnesota

CITY           SKY/WX    TMP DP  RH WIND       PRES   REMARKS
MONTEVIDEO     SUNNY     84  73  70 S10G17    30.02S HX  91
GRANITE FALLS  SUNNY     85  74  70 SE9       30.03S HX  93
CANBY          SUNNY     85  73  66 SE8       30.01S HX  91
MARSHALL       SUNNY     84  74  71 S13       30.02S HX  91
REDWOOD FALLS  SUNNY     83  71  67 SE12      30.03S
OLIVIA         SUNNY     81  70  69 SE10      30.04S
PIPESTONE      SUNNY     82  72  69 S8G17     30.05S
WINDOM         SUNNY     82  70  65 SE10      30.08R
WORTHINGTON    MOSUNNY   81  73  76 SE9       30.09R
JACKSON          N/A     81  66  61 SE10      30.10S
TRACY          SUNNY     83  74  73 S7        30.05S HX  90
SLAYTON        SUNNY     81  72  74 S10       30.07R
$$
MNZ065>067-074>077-082>085-091>093-290100-
   South Central Minnesota

CITY           SKY/WX    TMP DP  RH WIND       PRES   REMARKS
MANKATO        CLEAR     81  68  65 S8        30.09S
NEW ULM        CLEAR     81  70  69 S10       30.07R
ST JAMES       CLEAR     77  66  69 SE8       30.09R
FAIRMONT       CLEAR     80  70  71 S8        30.10R
GLENCOE        CLEAR     82  73  72 SE6       30.08R
FARIBAULT      CLEAR     81  68  65 SE7       30.12R
OWATONNA       CLEAR     81  68  65 S5        30.12S
WASECA         CLEAR     79  68  69 SE5       30.12S
ALBERT LEA     CLEAR     81  70  69 S8        30.12S
$$
MNZ078>079-086>088-094>096-290100-
   Southeast Minnesota

CITY           SKY/WX    TMP DP  RH WIND       PRES   REMARKS
ROCHESTER      PTCLDY    79  71  76 S7        30.15R
6HR MIN TEMP:  78; 6HR MAX TEMP:  83;

RED WING       PTCLDY    81  68  65 SE8       30.11R
DODGE CENTER   CLEAR     81  70  69 S5        30.14S
WINONA         CLEAR     77  68  73 SE8       30.14R
AUSTIN         CLEAR     79  70  73 CALM      30.13S
PRESTON        CLEAR     78  69  73 SE5       30.16S
$$
ABBREVIATIONS USED IN REMARKS
   TC - TEMPERATURES IN CELSIUS
  WCI - WIND CHILL INDEX
   HX - HEAT INDEX
  VSB - VISIBILITY
$$




USA.gov is the U.S. government's official web portal to all federal, state and local government web resources and services.